Hourly Data Report for October 06, 2014

All times are specified in Local Standard Time (LST). Add 1 hour to adjust for Daylight Saving Time where and when it is observed.

KUGAARUK CLIMATE
NUNAVUT

68°32'15.060" N
89°47'47.020" W
15.80 m
2303094
71407
NBB

Download Data

Hourly Data (October 2014)
Hourly Data Report for October 6, 2014
Temp Definition
°C
Dew Point Temp Definition
°C
Rel Hum Definition
%
Wind Dir Definition
10's deg

Wind Spd Definition
km/h
Visibility Definition
km
Stn Press Definition
kPa
Hmdx Definition


Wind Chill Definition


Weather Definition


TIME
00:00 -8.8 -10.3 88 4 24   101.98   -17 LegendNANA
01:00 -8.9 -10.5 88 7 16   102.00   -16 LegendNANA
02:00 -8.5 -10.3 86 3 31   101.92   -18 LegendNANA
03:00 -7.0 -9.0 86 5 30   101.88   -16 LegendNANA
04:00 -6.5 -8.4 86 6 29   101.88   -15 LegendNANA
05:00 -6.1 -8.0 87 5 32   101.82   -15 LegendNANA
06:00 -6.1 -7.5 90 5 16   101.83   -12 LegendNANA
07:00 -5.5 -7.0 89 6 26   101.78   -13 LegendNANA
08:00 -4.8 -6.3 89 6 34   101.77   -13 LegendNANA
09:00 -4.1 -5.4 90 7 34   101.76   -12 LegendNANA
10:00 -3.6 -5.0 90 6 37   101.74   -12 LegendNANA
11:00 -3.8 -5.4 89 7 33   101.72   -12 LegendNANA
12:00 -3.1 -4.7 89 7 32   101.72   -11 LegendNANA
13:00 -3.4 -5.0 89 7 32   101.74   -11 LegendNANA
14:00 -3.0 -4.5 89 7 38   101.72   -11 LegendNANA
15:00 -2.8 -4.2 90 7 36   101.75   -11 LegendNANA
16:00 -2.6 -4.0 90 8 38   101.78   -11 LegendNANA
17:00 -2.5 -3.9 90 8 40   101.80   -11 LegendNANA
18:00 -2.2 -3.6 90 8 40   101.85   -10 LegendNANA
19:00 -2.0 -3.4 90 8 38   101.86   -10 LegendNANA
20:00 -1.6 -3.2 89 8 35   101.89   -9 LegendNANA
21:00 -1.5 -3.1 89 8 34   101.88   -9 LegendNANA
22:00 -1.4 -3.1 88 8 30   101.91   -8 LegendNANA
23:00 -2.1 -3.6 90 7 23   101.95   -8 LegendNANA

Notes on Data Quality.

Legend

  • E = Estimated
  • M = Missing
  • NA = Not Available
  • ‡ = Partner data that is not subject to review by the National Climate Archives
Date modified: